Weather in Belogorsk

Russia / Republic of Crimea     45˚03′25″N   34˚35′59″E
temp.,
°C
wind,
m/s
gust,
m/s
humid.,
%
clouds,
%
prec.,
mm/h
press.,
hPa
HPBL,
m
2 december, wed
wed200:00+2˚ssw11920 0.0 102023
03:00+3˚sw11890 0.0 102022
06:00+3˚sse11850 0.0 102122
09:00+3˚sse22901 0.0 102235
12:00+7˚ssw027735 0.0 1023386
15:00+8˚n027250 0.0 1022585
18:00+6˚nne018293 0.0 102329
21:00+5˚s119277 0.0 102322
3 december, thu
thu300:00+4˚s118838 0.0 102422
03:00+5˚sw118662 0.0 102422
06:00+4˚se118770 0.0 102322
09:00+5˚se228185 0.0 102424
12:00+9˚ese226339 0.0 1024370
15:00+10˚ene236220 0.0 1023515
18:00+6˚ese22830 0.0 102339
21:00+6˚se22810 0.0 102326
4 december, fri
fri400:00+5˚ese22820 0.0 102228
03:00+5˚ese23820 0.0 102126
06:00+5˚se23860 0.0 102126
09:00+5˚se23900 0.0 102141
12:00+10˚se46750 0.0 1021531
15:00+11˚se34700 0.0 1020359
18:00+7˚se33880 0.0 102069
21:00+7˚se348811 0.0 102174
5 december, sat
sat500:00+6˚se348213 0.0 102158
03:00+6˚se338010 0.0 102135
06:00+6˚se237715 0.0 102128
09:00+6˚se23738 0.0 102234
12:00+10˚e24590 0.0 1023260
15:00+10˚e45577 0.0 1022343
18:00+5˚e348031 0.0 1023110
21:00+4˚e248324 0.0 102487
6 december, sun
sun600:00+3˚e23840 0.0 102467
03:00+2˚e23862 0.0 102473
06:00+1˚e359167 0.0 1024113
09:00+1˚e359062 0.0 1024150
12:00+4˚e457233 0.0 1024237
15:00+5˚ene456817 0.0 1023268
18:00+2˚e45820 0.0 1023169
21:00+1˚ese35820 0.0 1023121